Volver al catálogo

CZ-6A DEB

ActivoPO
NORAD 60894·DEBRIS·🇨🇳 China

Lanzado Aug 6, 2024 desde Taiyuan Satellite Launch Center

Loading…

Próximos Pases (próximas 24 horas)

TLE

ActualizadoSource: Space-Track

Época: Sep 14, 2026, 11:29 UTC

1 60894U 24140KZ  26257.47878827  .00000465  00000-0  23003-3 0  9997
2 60894  89.0472 270.0969 0073049 297.5706  61.8074 14.14516269106935

Sigue CZ-6A DEB en tiempo real con AllMySat

Download on the App Store